Mount Airy, NC

12:09 AM EST on December 16, 2019 (GMT -0500)
Mount Airy-Surry County

Weather History for KMWK - June, 2019

Change the Weather History Date:

Wednesday, June 12, 2019

  Actual Average (WUND) Record (WUND)
Temperature  
Mean Temperature 64 °F -  
Max Temperature 74 °F - - (-1)
Min Temperature 54 °F - - (-1)
Degree Days  
Heating Degree Days 1    
Growing Degree Days 14 (Base 50)    
Moisture  
Dew Point 55 °F    
Average Humidity 77    
Maximum Humidity 91    
Minimum Humidity 44    
Precipitation  
Precipitation 0.00 in - - ()
Sea Level Pressure  
Sea Level Pressure 30.11 in    
Wind  
Wind Speed 2 mph ()    
Max Wind Speed 13 mph    
Max Gust Speed 17 mph    
Visibility 9.8 miles    
Events Rain    
Averages and records for this station are not official NWS values.
T = Trace of Precipitation, MM = Missing Value Source: Averaged Metar Reports

Daily Weather History Graph

Daily Weather History Graph

Search for Another Location

Airport or City:

Astronomy

Jun. 12, 2019 Rise Set
Actual Time 6:03 AM EDT 8:40 PM EDT
Civil Twilight 5:33 AM EDT 9:11 PM EDT
Nautical Twilight 4:55 AM EDT 9:48 PM EDT
Astronomical Twilight 4:13 AM EDT 10:31 PM EDT
Moon 3:55 PM EDT (6/12) 3:07 AM EDT (6/12)
Length of Visible Light 15h 37m
Length of Day
14h 37m
Waxing Gibbous, 76% of the Moon is Illuminated
Jun 12
Waxing Gibbous
Jun 17
Full
Jun 25
Last Quarter
Jul 2
New
Jul 9
First Quarter

Hourly Weather History & Observations

Time (EDT) Temp. Dew Point Humidity Pressure Visibility Wind Dir Wind Speed Gust Speed Precip Events Conditions
12:00 AM 60.3 °F 54.7 °F 82% 30.16 in 10.0 mi Calm Calm - N/A   Clear
12:20 AM 58.1 °F 53.8 °F 86% 30.16 in 10.0 mi Calm Calm - N/A   Clear
12:40 AM 58.5 °F 53.8 °F 84% 30.16 in 10.0 mi Calm Calm - N/A   Clear
1:00 AM 57.9 °F 53.8 °F 86% 30.16 in 10.0 mi Calm Calm - N/A   Clear
1:20 AM 57.2 °F 53.1 °F 86% 30.16 in 10.0 mi Calm Calm - N/A   Clear
1:40 AM 57.2 °F 53.6 °F 88% 30.16 in 10.0 mi Calm Calm - N/A   Clear
2:00 AM 56.3 °F 52.9 °F 88% 30.15 in 10.0 mi Calm Calm - N/A   Clear
2:20 AM 57.2 °F 53.1 °F 86% 30.15 in 10.0 mi Calm Calm - N/A   Clear
2:40 AM 56.1 °F 52.9 °F 89% 30.15 in 10.0 mi Calm Calm - N/A   Clear
3:00 AM 55.4 °F 52.3 °F 89% 30.14 in 10.0 mi Calm Calm - N/A   Clear
3:20 AM 55.6 °F 52.7 °F 90% 30.15 in 10.0 mi Calm Calm - N/A   Clear
3:40 AM 55.6 °F 52.9 °F 91% 30.15 in 10.0 mi Calm Calm - N/A   Clear
4:00 AM 55.6 °F 52.9 °F 91% 30.16 in 10.0 mi Calm Calm - N/A   Clear
4:20 AM 55.6 °F 52.9 °F 91% 30.15 in 10.0 mi Calm Calm - N/A   Clear
4:40 AM 55.2 °F 52.5 °F 91% 30.15 in 10.0 mi Calm Calm - N/A   Clear
5:00 AM 55.8 °F 52.7 °F 89% 30.16 in 10.0 mi Calm Calm - N/A   Clear
5:20 AM 55.4 °F 52.7 °F 91% 30.16 in 10.0 mi Calm Calm - N/A   Clear
5:40 AM 54.9 °F 52.2 °F 91% 30.16 in 10.0 mi Calm Calm - N/A   Clear
6:00 AM 54.9 °F 52.0 °F 90% 30.17 in 10.0 mi Calm Calm - N/A   Clear
6:20 AM 54.9 °F 52.0 °F 90% 30.17 in 10.0 mi Calm Calm - N/A   Clear
6:40 AM 55.2 °F 52.5 °F 91% 30.16 in 10.0 mi Calm Calm - N/A   Clear
7:00 AM 55.8 °F 53.1 °F 91% 30.17 in 10.0 mi Calm Calm - N/A   Clear
7:20 AM 56.3 °F 53.2 °F 89% 30.17 in 10.0 mi Calm Calm - N/A   Clear
7:40 AM 57.4 °F 54.1 °F 89% 30.16 in 10.0 mi Calm Calm - N/A   Clear
8:00 AM 58.3 °F 54.9 °F 88% 30.16 in 10.0 mi Calm Calm - N/A   Clear
8:20 AM 59.9 °F 56.3 °F 88% 30.17 in 10.0 mi Calm Calm - N/A   Clear
8:40 AM 62.6 °F 57.4 °F 83% 30.17 in 10.0 mi Calm Calm - N/A   Clear
9:00 AM 64.0 °F 57.9 °F 80% 30.17 in 10.0 mi Calm Calm - N/A   Clear
9:20 AM 68.9 °F 54.5 °F 60% 30.17 in 10.0 mi East 5.8 mph - N/A   Clear
9:40 AM 69.1 °F 52.7 °F 56% 30.16 in 10.0 mi East 6.9 mph - N/A   Clear
10:00 AM 69.1 °F 53.4 °F 57% 30.16 in 10.0 mi East 8.1 mph - N/A   Clear
10:20 AM 69.1 °F 54.1 °F 59% 30.16 in 10.0 mi ENE 8.1 mph - N/A   Clear
10:40 AM 70.0 °F 53.6 °F 56% 30.16 in 10.0 mi East 8.1 mph - N/A   Clear
11:00 AM 70.9 °F 53.2 °F 54% 30.16 in 10.0 mi East 6.9 mph - N/A   Clear
11:20 AM 70.9 °F 53.1 °F 53% 30.15 in 10.0 mi East 9.2 mph - N/A   Clear
11:40 AM 72.5 °F 52.3 °F 49% 30.15 in 10.0 mi SE 11.5 mph - N/A   Clear
12:00 PM 72.5 °F 51.6 °F 48% 30.15 in 10.0 mi East 11.5 mph 17.3 mph N/A   Clear
12:20 PM 72.5 °F 51.8 °F 48% 30.14 in 10.0 mi East 12.7 mph 16.1 mph N/A   Clear
12:40 PM 72.7 °F 53.2 °F 50% 30.13 in 10.0 mi East 8.1 mph - N/A   Clear
1:00 PM 73.9 °F 52.9 °F 48% 30.11 in 10.0 mi East 9.2 mph - N/A   Clear
1:20 PM 73.4 °F 51.4 °F 46% 30.10 in 10.0 mi East 10.4 mph - N/A   Clear
1:40 PM 74.5 °F 51.1 °F 44% 30.10 in 10.0 mi East 9.2 mph - N/A   Clear
2:00 PM 73.2 °F 50.9 °F 45% 30.10 in 10.0 mi ESE 6.9 mph - N/A   Clear
2:20 PM 72.5 °F 50.0 °F 45% 30.09 in 10.0 mi East 6.9 mph - N/A   Clear
2:40 PM 73.6 °F 52.3 °F 47% 30.09 in 10.0 mi East 10.4 mph 16.1 mph N/A   Clear
3:00 PM 72.5 °F 53.8 °F 52% 30.10 in 10.0 mi SE 8.1 mph - N/A   Scattered Clouds
3:20 PM 71.2 °F 54.7 °F 56% 30.10 in 10.0 mi SE 6.9 mph - N/A   Scattered Clouds
3:40 PM 70.5 °F 55.2 °F 58% 30.09 in 10.0 mi SE 5.8 mph - N/A   Clear
4:00 PM 69.8 °F 55.4 °F 60% 30.08 in 10.0 mi ESE 6.9 mph - N/A   Scattered Clouds
4:20 PM 69.3 °F 56.1 °F 63% 30.07 in 10.0 mi East 6.9 mph - N/A   Clear
4:40 PM 68.9 °F 57.0 °F 66% 30.07 in 10.0 mi ESE 5.8 mph - N/A Rain Light Rain
5:00 PM 65.3 °F 56.3 °F 73% 30.05 in 10.0 mi ESE 6.9 mph - N/A Rain Light Rain
5:40 PM 63.5 °F 58.1 °F 83% 30.04 in 10.0 mi East 5.8 mph - N/A Rain Light Rain
6:00 PM 63.3 °F 57.2 °F 80% 30.03 in 10.0 mi ENE 5.8 mph - N/A Rain Light Rain
6:20 PM 63.0 °F 56.7 °F 80% 30.04 in 10.0 mi East 3.5 mph - N/A   Clear
6:40 PM 62.2 °F 57.9 °F 86% 30.04 in 10.0 mi Calm Calm - N/A Rain Light Rain
7:00 PM 62.2 °F 58.1 °F 86% 30.03 in 10.0 mi Calm Calm - N/A Rain Rain
7:20 PM 62.1 °F 58.5 °F 88% 30.02 in 10.0 mi East 5.8 mph - N/A Rain Light Rain
7:40 PM 62.2 °F 58.8 °F 89% 30.03 in 10.0 mi ENE 3.5 mph - N/A   Scattered Clouds
8:00 PM 61.7 °F 58.6 °F 90% 30.04 in 10.0 mi Calm Calm - N/A Rain Rain
8:20 PM 61.2 °F 58.6 °F 91% 30.04 in 10.0 mi Calm Calm - N/A   Drizzle
8:40 PM 61.2 °F 58.3 °F 90% 30.02 in 10.0 mi Calm Calm - N/A   Overcast
9:00 PM 61.5 °F 58.8 °F 91% 30.02 in 10.0 mi NE 3.5 mph - N/A Rain Light Rain
9:20 PM 61.0 °F 58.1 °F 90% 30.02 in 10.0 mi ENE 3.5 mph - N/A   Overcast
9:40 PM 60.8 °F 57.7 °F 90% 30.01 in 10.0 mi Calm Calm - N/A   Overcast
10:00 PM 60.8 °F 57.7 °F 90% 30.01 in 10.0 mi Calm Calm - N/A   Overcast
10:20 PM 60.3 °F 57.4 °F 90% 30.01 in 10.0 mi Calm Calm - N/A   Overcast
10:40 PM 60.1 °F 57.6 °F 91% 30.01 in 10.0 mi Calm Calm - N/A   Overcast
11:00 PM 60.1 °F 57.6 °F 91% 30.00 in 7.0 mi Calm Calm - N/A Rain Rain
11:20 PM 59.9 °F 57.2 °F 91% 30.00 in 4.0 mi Calm Calm - N/A   Drizzle
11:40 PM 59.5 °F 57.0 °F 91% 29.99 in 7.0 mi Calm Calm - N/A Rain Rain